Погода в Лебедине

Украина / Сумская область     50˚34′35″N   34˚29′11″E
темп.,
°C
ветер,
м/с
пор.,
м/с
влажн.,
%
обл.,
%
осадки,
мм/ч
давл.,
гПа
погр.,
м
5 декабря, сб
сб523:00−3˚юв611766 0.0 1032432
02:00−3˚вюв611733 0.0 1033420
05:00−3˚вюв611650 0.0 1033433
08:00−3˚вюв511660 0.0 1033422
11:00−1˚вюв611600 0.0 1034463
14:00вюв610540 0.0 1034445
17:00−2˚вюв513420 0.0 1034374
20:00−3˚вюв512420 0.0 1036359
6 декабря, вс
вс623:00−3˚вюв612430 0.0 1036350
02:00−4˚вюв511450 0.0 1037321
05:00−5˚вюв611440 0.0 1037306
08:00−5˚в611470 0.0 1038337
11:00−2˚вюв610430 0.0 1038445
14:00−2˚в611510 0.0 1037540
17:00−4˚в613600 0.0 1037505
20:00−5˚в613610 0.0 1037498
7 декабря, пн
пн723:00−5˚в613630 0.0 1038524
02:00−6˚в613630 0.0 1038483
05:00−6˚в612650 0.0 1037439
08:00−7˚в714640 0.0 1037453
11:00−4˚в813510 0.0 1036546
14:00−3˚вюв813430 0.0 1035639
17:00−4˚в714430 0.0 1035545
20:00−5˚вюв714460 0.0 1035518
8 декабря, вт
вт823:00−6˚вюв714520 0.0 1034483
02:00−6˚в715550 0.0 1033446
05:00−6˚вюв713550 0.0 1032439
08:00−6˚в715560 0.0 1032462
11:00−3˚вюв814440 0.0 1031576
14:00−2˚вюв814410 0.0 1030698
17:00−3˚вюв715460 0.0 1031535
20:00−4˚вюв614470 0.0 1031507
9 декабря, ср
ср923:00−5˚вюв614510 0.0 1031457
02:00−5˚вюв612570 0.0 1031404
05:00−6˚в612600 0.0 1031409
08:00−6˚в6126312 0.0 1030428
11:00−4˚вюв6116469 0.0 1031563
14:00−4˚вюв697781 0.0 1030539
17:00−4˚вюв51086100 0.1 1030512
20:00−3˚вюв61081100 0.1 1030449